Flag for Central African Republic Weather past 2 weeks in Bimbo, Central African Republic

Now
75 °F

Thunderstorms. Passing clouds.


Feels Like: 75 °F
Forecast: 71 / 87 °F
Wind: 8 mph from Northeast

Location: Bangui Airport

Current Time: Sep 24, 2014 at 5:28:14 AM

Latest Report: Sep 24, 2014 at 4:00 AM


Visibility: N/A

Pressure: 29.89 "Hg

Humidity: 89%

Dew point: 72 °F

Location of BimboLocation

Historic Weather in Bimbo — Graph

°F

Bimbo temperature yesterday

Maximum temperature yesterday: 90 °F (at 3:00 PM)
Minimum temperature yesterday: 70 °F (at 5:00 AM)
Average temperature yesterday: 79 °F

Past Weeks' High & Low Weather Summary

 TemperatureHumidityPressure
High93 °F (Sep 20, 1:00 PM)100% (Sep 9, 4:00 AM)29.98 "Hg (Sep 9, 4:00 AM)
Low68 °F (Sep 10, 3:00 AM)44% (Sep 20, 1:00 PM)29.77 "Hg (Sep 11, 4:00 PM)
Average78 °F83%29.89 "Hg
* Reported Sep 9 4:00 AM — Sep 24 4:00 AM, Bimbo, Weather by CustomWeather, © 2014

Note: Actual official high and low records may vary slightly from our data, if they occured in-between our weather recording intervals... More about our weather records

Advertising

Bimbo weather history for previous 24 hours

 ConditionsComfort  
Time TempWeatherWind HumidityBarometerVisibility
4:00 AM
Sep 24
75 °FThunderstorms. Passing clouds.8 mph89%29.89 "HgN/A
3:00 AM73 °FThunderstorms. Passing clouds.No wind94%29.86 "HgN/A
2:00 AM73 °FThunderstorms. Passing clouds.1 mph94%29.89 "HgN/A
1:00 AM73 °FClear.2 mph94%29.89 "Hg10 mi
12:00 AM73 °FClear.1 mph94%29.89 "Hg10 mi
11:00 PM
Sep 23
75 °FClear.1 mph94%29.89 "Hg4 mi
10:00 PM75 °FClear.No wind94%29.89 "Hg4 mi
9:00 PM77 °FClear.No wind89%29.89 "Hg4 mi
8:00 PM77 °FPassing clouds.2 mph89%29.86 "Hg5 mi
7:00 PM79 °FPassing clouds.2 mph79%29.83 "Hg5 mi
6:00 PM84 °FPassing clouds.2 mph70%29.80 "HgN/A
5:00 PM88 °FPassing clouds.3 mph62%29.80 "HgN/A
4:00 PM90 °FScattered clouds.3 mph55%29.80 "HgN/A
3:00 PM90 °FScattered clouds.1 mph59%29.80 "HgN/A
2:00 PM88 °FBroken clouds.5 mph62%29.80 "HgN/A
1:00 PM86 °FBroken clouds.2 mph66%29.83 "HgN/A
12:00 PM84 °FBroken clouds.No wind70%29.89 "HgN/A
11:00 AM82 °FBroken clouds.5 mph70%29.92 "HgN/A
10:00 AM82 °FBroken clouds.2 mph70%29.95 "HgN/A
9:00 AM79 °FBroken clouds.1 mph74%29.95 "HgN/A
8:00 AM72 °FLow clouds.No wind94%29.95 "HgN/A
7:00 AM70 °FPartly sunny.2 mph100%29.95 "HgN/A
6:00 AM70 °FPartly sunny.No wind94%29.92 "HgN/A
5:00 AM70 °FPassing clouds.5 mph94%29.92 "HgN/A
Weather by CustomWeather, © 2014

See weather overviewHow to use our weather pages